Location: Larrial
(48.2758°N, 4.5331°W)
Time: 22:49:56
(UTC+00:00)

Cosmos 2333 Rocket - Pass Details

Date: 09 April 2020
Orbit: 841 x 860 km, 70.8° (Epoch: 26 May)

Event Time Altitude Azimuth Distance (km) Brightness Sun altitude
Rises 23:34:19 0° 336° (NNW) 3,408 6.4 -32.8°
Reaches altitude 10° 23:37:12 10° 349° (N) 2,470 5.5 -32.9°
Maximum altitude 23:41:52 26° 45° (NE) 1,626 3.9 -33.1°
Enters shadow 23:42:30 25° 55° (NE) 1,645 3.8 -33.1°
